This is the latest recevied weather packets stored in our database for station/object K3BAY-1. If no packets are shown the sender has not sent any weather packets the latest 10 day(s).
| Time | Temp. | Humidity | Pressure | Rain* | Wind** | Luminosity | Snow |
|---|---|---|---|---|---|---|---|
| 1777842758 | 18.33° C | 31% | 1013.9 hPa | 0 mm | - | 371 W/m² | - |
| 1777842453 | 18.33° C | 31% | 1013.9 hPa | 0 mm | - | 386 W/m² | - |
| 1777842151 | 18.89° C | 31% | 1014.2 hPa | 0 mm | - | 407 W/m² | - |
| 1777841846 | 18.89° C | 32% | 1014.2 hPa | 0 mm | - | 440 W/m² | - |
| 1777841542 | 17.78° C | 33% | 1014.2 hPa | 0 mm | - | 449 W/m² | - |
| 1777841239 | 17.78° C | 34% | 1014.2 hPa | 0 mm | - | 470 W/m² | - |
| 1777840634 | 17.78° C | 31% | 1014.2 hPa | 0 mm | - | 460 W/m² | - |
| 1777840331 | 17.78° C | 31% | 1014.6 hPa | 0 mm | - | 486 W/m² | - |
| 1777840028 | 18.33° C | 31% | 1014.6 hPa | 0 mm | - | 497 W/m² | - |
| 1777839726 | 17.78° C | 34% | 1014.9 hPa | 0 mm | - | 528 W/m² | - |
| 1777838514 | 17.22° C | 34% | 1015.3 hPa | 0 mm | - | 586 W/m² | - |
| 1777838211 | 16.67° C | 35% | 1015.3 hPa | 0 mm | - | 156 W/m² | - |
| 1777837908 | 17.22° C | 35% | 1015.3 hPa | 0 mm | - | 601 W/m² | - |
| 1777836692 | 17.78° C | 34% | 1015.9 hPa | 0 mm | - | 627 W/m² | - |
| 1777836388 | 17.22° C | 35% | 1015.6 hPa | 0 mm | - | 138 W/m² | - |
| 1777835175 | 17.22° C | 35% | 1015.9 hPa | 0 mm | - | 693 W/m² | - |
| 1777834569 | 16.67° C | 38% | 1015.6 hPa | 0 mm | - | 719 W/m² | - |
| 1777833661 | 16.11° C | 34% | 1015.9 hPa | 0 mm | - | 755 W/m² | - |
| 1777833358 | 16.11° C | 40% | 1015.9 hPa | 0 mm | - | 750 W/m² | - |
| 1777833055 | 15.56° C | 39% | 1015.9 hPa | 0 mm | - | 131 W/m² | - |
| 1777832148 | 16.67° C | 38% | 1015.6 hPa | 0 mm | - | 769 W/m² | - |
| 1777830936 | 15.56° C | 39% | 1014.9 hPa | 0 mm | - | 723 W/m² | - |
| 1777828207 | 15° C | 39% | 1015.3 hPa | 0 mm | - | 168 W/m² | - |
| 1777826994 | 14.44° C | 38% | 1015.3 hPa | 0 mm | - | 441 W/m² | - |
| 1777825479 | 13.89° C | 41% | 1015.3 hPa | 0 mm | - | 51 W/m² | - |
* Rain latest hour (hover to see other rain measurements)
** Current wind speed in m/s (hover to see current wind gust speed)